Houston, TX

3:41 AM CST on December 10, 2016 (GMT -0600)
Hobby

Weather History for KHOU - November, 2012

Change the Weather History Date:

Thursday, November 15, 2012

  Actual Average Record
Temperature  
Mean Temperature 54 °F 62 °F  
Max Temperature 69 °F 73 °F 88 °F (1978)
Min Temperature 38 °F 52 °F 25 °F (1969)
Degree Days  
Heating Degree Days 11 5  
Month to date heating degree days 43 54  
Since 1 July heating degree days 83 84  
Growing Degree Days 6 (Base 50)    
Moisture  
Dew Point 36 °F    
Average Humidity 51    
Maximum Humidity 79    
Minimum Humidity 22    
Precipitation  
Precipitation 0.00 in 0.14 in 2.80 in (1956)
Month to date precipitation 0.57 2.25  
Year to date precipitation 39.39 43.94  
Sea Level Pressure  
Sea Level Pressure 30.29 in    
Wind  
Wind Speed 3 mph (ENE)    
Max Wind Speed 10 mph    
Max Gust Speed 14 mph    
Visibility 10 miles    
Events      
T = Trace of Precipitation, MM = Missing Value Source: NWS Daily Summary

Daily Weather History Graph

Daily Weather History Graph

Search for Another Location

Airport or City:

Trip Planner

Search our weather history database for the weather conditions in past years. The results will help you decide how hot, cold, wet, or windy it might be!

Date:

Astronomy

Nov. 15, 2012 Rise Set
Actual Time 6:45 AM CST 5:25 PM CST
Civil Twilight 6:20 AM CST 5:50 PM CST
Nautical Twilight 5:51 AM CST 6:19 PM CST
Astronomical Twilight 5:23 AM CST 6:47 PM CST
Moon 8:37 AM CST (11/15) 7:22 PM CST (11/15)
Length of Visible Light 11h 29m
Length of Day
10h 39m
Waxing Crescent, 5% of the Moon is Illuminated
Nov 15
Waxing Crescent
Nov 20
First Quarter
Nov 28
Full
Dec 6
Last Quarter
Dec 13
New

Hourly Weather History & Observations

Time (CST) Temp. Windchill Dew Point Humidity Pressure Visibility Wind Dir Wind Speed Gust Speed Precip Events Conditions
12:53 AM 46.9 °F - 36.0 °F 66% 30.30 in 10.0 mi Calm Calm - N/A   Clear
1:53 AM 46.9 °F - 36.0 °F 66% 30.29 in 10.0 mi Calm Calm - N/A   Clear
2:53 AM 48.0 °F - 35.1 °F 61% 30.28 in 10.0 mi Calm Calm - N/A   Clear
3:53 AM 46.0 °F 43.1 °F 36.0 °F 68% 30.29 in 10.0 mi NE 5.8 mph - N/A   Clear
4:53 AM 45.0 °F 43.5 °F 35.1 °F 68% 30.28 in 10.0 mi NE 3.5 mph - N/A   Clear
5:53 AM 45.0 °F 43.5 °F 36.0 °F 71% 30.30 in 10.0 mi NE 3.5 mph - N/A   Clear
6:53 AM 45.0 °F 41.8 °F 37.0 °F 74% 30.30 in 10.0 mi NE 5.8 mph - N/A   Partly Cloudy
7:53 AM 48.9 °F - 39.0 °F 69% 30.32 in 10.0 mi ENE 5.8 mph - N/A   Partly Cloudy
8:53 AM 55.0 °F - 37.9 °F 53% 30.33 in 10.0 mi ENE 8.1 mph - N/A   Partly Cloudy
9:53 AM 59.0 °F - 36.0 °F 42% 30.34 in 10.0 mi ENE 8.1 mph - N/A   Partly Cloudy
10:53 AM 61.0 °F - 37.0 °F 41% 30.33 in 10.0 mi ENE 5.8 mph - N/A   Partly Cloudy
11:53 AM 64.0 °F - 33.1 °F 31% 30.30 in 10.0 mi NE 5.8 mph - N/A   Scattered Clouds
12:53 PM 66.0 °F - 32.0 °F 28% 30.27 in 10.0 mi East 6.9 mph - N/A   Scattered Clouds
1:53 PM 68.0 °F - 34.0 °F 28% 30.25 in 10.0 mi Variable 5.8 mph - N/A   Scattered Clouds
2:53 PM 66.9 °F - 33.1 °F 28% 30.24 in 10.0 mi Variable 4.6 mph - N/A   Scattered Clouds
3:53 PM 68.0 °F - 32.0 °F 26% 30.22 in 10.0 mi NE 5.8 mph - N/A   Mostly Cloudy
4:53 PM 64.0 °F - 36.0 °F 35% 30.23 in 10.0 mi SE 4.6 mph - N/A   Scattered Clouds
5:53 PM 61.0 °F - 36.0 °F 39% 30.25 in 10.0 mi ESE 4.6 mph - N/A   Scattered Clouds
6:53 PM 57.0 °F - 36.0 °F 45% 30.26 in 10.0 mi Calm Calm - N/A   Scattered Clouds
7:53 PM 54.0 °F - 37.0 °F 53% 30.28 in 10.0 mi Calm Calm - N/A   Scattered Clouds
8:53 PM 55.9 °F - 37.0 °F 49% 30.30 in 10.0 mi Calm Calm - N/A   Mostly Cloudy
9:53 PM 54.0 °F - 37.9 °F 55% 30.30 in 10.0 mi Calm Calm - N/A   Mostly Cloudy
10:53 PM 55.9 °F - 41.0 °F 57% 30.31 in 10.0 mi NNE 6.9 mph - N/A   Mostly Cloudy
11:53 PM 55.9 °F - 37.9 °F 51% 30.31 in 10.0 mi NE 10.4 mph - N/A   Overcast